{"data":{"norad_id":64595,"intl_designator":"2025-137B","name":"STARLINK-34517","alt_names":[],"object_type":"PAYLOAD","status":"ACTIVE","operator":null,"country":"US","launch_date":"2025-06-25","launch_site_code":"AFETR","launch_vehicle":null,"mission":null,"orbit_class":"UNKNOWN","rcs_meters":null,"size_class":null,"mass_kg":null,"dimensions":null,"purposes":["comms"],"wikipedia_slug":null,"has_3d_model":false,"image_url":null,"decayed_at":null,"tle_current":{"epoch":"2026-05-24T23:41:26.442240Z","epoch_age_seconds":73607,"freshness":"FRESH","line1":"1 64595U 25137B   26144.98711160  .00013189  00000+0  45654-3 0  9995","line2":"2 64595  53.1600 341.0376 0001184  92.8559 267.2577 15.30207296 52415","mean_motion":15.30207296,"eccentricity":0.0001184,"inclination_deg":53.16,"raan_deg":341.0376,"arg_perigee_deg":92.8559,"mean_anomaly_deg":267.2577,"bstar":0.00045654,"rev_number":5241,"period_min":94.104897013901,"perigee_km":474.38185065925,"apogee_km":476.00471927073,"semimajor_km":6853.330284965,"source":"CELESTRAK","updated_at":"2026-05-25T13:38:20.463603Z"}}}